Regional Weather Roundup
Issued by NWS Midland/Odessa, TX

Skip options and go directly to product.
Home | Oldest Version | Previous Version | Current Version | All | Text Only | Save Text | Print | Product List | Glossary On

Skip product version selection by date and time.   
829
ASUS44 KMAF 050401
RWRMAF
MIDLAND AREA WEATHER ROUNDUP
NATIONAL WEATHER SERVICE MIDLAND TX
1100 PM CDT SAT JUL 04 2015

...IN SOUTHWEST TEXAS AND SOUTHEAST NEW MEXICO...

CITY           SKY/WX    TMP DP  RH WIND       PRES   REMARKS
ALPINE         MOCLDY    73  62  66 S5        30.15R
ANDREWS        FAIR      77  61  56 S7        30.03R
ARTESIA        PTCLDY    81  59  47 SE9       30.02R
BIG SPRING     CLEAR     81  60  48 SE6       30.02R
CARLSBAD       PTCLDY    81  59  47 SE8       29.98R
DRYDEN           N/A     83  66  56 SE6       29.95R
FORT STOCKTON  MOCLDY    79  63  57 SE10      30.00R
GUAD PASS      CLEAR     73  58  59 E15       30.16R
HOBBS          MOCLDY    77  59  53 SE8       30.05R
MARFA          MOCLDY   N/A N/A N/A SE7       30.13R
MIDLAND AIRPK  PTCLDY    82  60  46 SE6       30.01R
MIDLAND INTL   PTCLDY    78  62  57 SE6       30.01R
ODESSA         CLEAR     80  60  50 SE7       30.02R
PECOS          CLEAR     83  60  46 SE12      29.96R
PRESIDIO       FAIR      84  64  51 MISG      29.96R
SEMINOLE       PTCLDY    78  60  53 SE7       30.04R
SNYDER         PTCLDY    78  64  61 S9        30.00R
WINK           PTCLDY    82  61  48 SE8       29.97R
$$
...OTHER STATIONS IN TEXAS...

CITY           SKY/WX    TMP DP  RH WIND       PRES   REMARKS
ABILENE        PTCLDY    80  65  59 SE8       29.98R
AMARILLO       PTCLDY    77  60  55 S12       30.02R
AUSTIN         PTCLDY    78  74  87 S7        29.99R
BROWNSVILLE    CLOUDY    79  75  87 SE5       29.99R
CORPUS CHRISTI PTCLDY    78  72  81 SE8       29.99R
DALLAS FTW     PTCLDY    86  70  58 S15       29.96R
DEL RIO        PTCLDY    85  70  60 E10       29.91R
EL PASO        LGT RAIN  73  68  84 W13       30.02F
HOUSTON INT    MOCLDY    80  75  84 S5        30.01R
LUBBOCK        PTCLDY    79  61  53 S10       30.03R
SAN ANGELO     CLEAR     80  65  59 S6        29.97R
SAN ANTONIO    PTCLDY    81  73  76 SE17      30.00R
WACO           MOCLDY    82  72  71 S13       29.98R
WICHITA FALLS  NOT AVBL
$$
...OTHER LOCATIONS IN NEW MEXICO...

CITY           SKY/WX    TMP DP  RH WIND       PRES   REMARKS
ALAMAGORDO     MOCLDY    81  55  41 SW13      30.03R
ALBUQUERQUE    CLOUDY    75  56  51 S9        30.13R
CANNON AFB     CLOUDY    73  61  65 S8        30.07R
CLOVIS         MOCLDY    75  57  53 S9          N/A
HOLLOMAN AFB   MOCLDY    80  57  44 SW14      30.01R
ROSWELL        MOCLDY    79  56  45 S7        30.01R
RUIDOSO        NOT AVBL
SANTA FE       CLOUDY    70  54  56 S5        30.18R
TRUTH OR CONSE LGT RAIN  69  65  86 NW12      30.10S
TUCUMCARI      CLOUDY    80  56  43 S8        30.02R
$$

USA.gov is the U.S. government's official web portal to all federal, state and local government web resources and services.